Weather History for Moline, IL

Change the Weather History Date:

Friday, May 2, 2014

  Actual Average Record
Temperature  
Mean Temperature 54 °F 57 °F  
Max Temperature 62 °F 68 °F 89 °F (1968)
Min Temperature 45 °F 46 °F 28 °F (2005)
Degree Days  
Heating Degree Days 11 8  
Month to date heating degree days 30 17  
Since 1 July heating degree days 7181 6040  
Cooling Degree Days 0 1  
Month to date cooling degree days 0 2  
Year to date cooling degree days 5 16  
Growing Degree Days 4 (Base 50)    
Moisture  
Dew Point 41 °F    
Average Humidity 66    
Maximum Humidity 89    
Minimum Humidity 42    
Precipitation  
Precipitation T in 0.13 in 0.90 in (1937)
Month to date precipitation 0.03 0.26  
Year to date precipitation 8.73 9.80  
Snow  
Snow 0.00 in 0.00 in - ()
Month to date snowfall 0.0 0.0  
Since 1 July snowfall 65.1 31.6  
Snow Depth 0.00 in    
Sea Level Pressure  
Sea Level Pressure 29.81 in    
Wind  
Wind Speed 11 mph (West)    
Max Wind Speed 21 mph    
Max Gust Speed 26 mph    
Visibility 10 miles    
Events      
T = Trace of Precipitation, MM = Missing Value Source: NWS Daily Summary

Daily Weather History Graph

Daily Weather History Graph

Search for Another Location

Airport:

Trip Planner

Search our weather history database for the weather conditions in past years. The results will help you decide how hot, cold, wet, or windy it might be!

Date:

Astronomy

May. 02, 2014 Rise Set
Actual Time 5:57 AM CDT 8:00 PM CDT
Civil Twilight 5:27 AM CDT 8:31 PM CDT
Nautical Twilight 4:50 AM CDT 9:08 PM CDT
Astronomical Twilight 4:10 AM CDT 9:48 PM CDT
Moon 8:34 AM CDT (5/2) 11:23 PM CDT (5/2)
Length of Visible Light 15h 03m
Length of Day
14h 02m
Waxing Crescent, 12% of the Moon is Illuminated
May 2
Waxing Crescent
May 6
First Quarter
May 14
Full
May 21
Last Quarter
May 28
New

Hourly Weather History & Observations

Time (CDT) Temp. Windchill Dew Point Humidity Pressure Visibility Wind Dir Wind Speed Gust Speed Precip Events Conditions
12:22 AM 46.4 °F 41.5 °F 42.8 °F 87% 29.87 in 10.0 mi West 10.4 mph - N/A   Overcast
12:31 AM 46.4 °F 41.9 °F 42.8 °F 87% 29.87 in 10.0 mi West 9.2 mph - N/A   Overcast
12:52 AM 46.0 °F 41.4 °F 42.1 °F 86% 29.88 in 10.0 mi West 9.2 mph - N/A   Overcast
1:52 AM 46.0 °F 40.6 °F 42.1 °F 86% 29.87 in 10.0 mi West 11.5 mph - N/A   Overcast
2:52 AM 46.0 °F 40.6 °F 42.1 °F 86% 29.86 in 10.0 mi West 11.5 mph - N/A   Overcast
3:52 AM 45.0 °F 40.6 °F 41.0 °F 86% 29.86 in 10.0 mi West 8.1 mph - N/A   Overcast
4:52 AM 45.0 °F 41.2 °F 41.0 °F 86% 29.85 in 10.0 mi West 6.9 mph - N/A   Overcast
5:52 AM 45.0 °F 39.3 °F 41.0 °F 86% 29.86 in 10.0 mi West 11.5 mph - N/A   Overcast
6:05 AM 44.6 °F 40.7 °F 41.0 °F 87% 29.85 in 10.0 mi West 6.9 mph - N/A   Overcast
6:35 AM 44.6 °F 40.2 °F 41.0 °F 87% 29.85 in 10.0 mi West 8.1 mph - N/A   Overcast
6:47 AM 44.6 °F 40.2 °F 41.0 °F 87% 29.85 in 10.0 mi WSW 8.1 mph - N/A   Overcast
6:52 AM 46.0 °F 41.9 °F 41.0 °F 83% 29.86 in 10.0 mi West 8.1 mph - N/A   Overcast
7:52 AM 46.0 °F 40.6 °F 39.9 °F 79% 29.87 in 10.0 mi West 11.5 mph - N/A   Overcast
8:52 AM 48.0 °F - 39.9 °F 74% 29.87 in 10.0 mi West 10.4 mph - N/A   Overcast
9:52 AM 50.0 °F - 39.0 °F 66% 29.86 in 10.0 mi West 11.5 mph - N/A   Overcast
10:52 AM 52.0 °F - 39.0 °F 61% 29.85 in 10.0 mi West 12.7 mph - N/A   Overcast
11:52 AM 52.0 °F - 37.9 °F 59% 29.85 in 10.0 mi West 15.0 mph 21.9 mph N/A   Overcast
12:52 PM 51.8 °F - 39.2 °F 62% 29.84 in 10.0 mi WSW 10.4 mph - N/A   Overcast
1:52 PM 54.0 °F - 39.9 °F 59% 29.82 in 10.0 mi West 8.1 mph - N/A   Overcast
2:52 PM 57.9 °F - 41.0 °F 53% 29.78 in 10.0 mi SW 15.0 mph 20.7 mph N/A   Mostly Cloudy
3:52 PM 61.0 °F - 39.9 °F 46% 29.76 in 10.0 mi WSW 11.5 mph 23.0 mph N/A   Mostly Cloudy
4:52 PM 62.1 °F - 39.0 °F 43% 29.74 in 10.0 mi WSW 12.7 mph 21.9 mph N/A   Scattered Clouds
5:52 PM 60.1 °F - 39.0 °F 46% 29.73 in 10.0 mi SW 9.2 mph - N/A   Mostly Cloudy
6:52 PM 60.1 °F - 39.0 °F 46% 29.69 in 10.0 mi SSW 10.4 mph - N/A   Overcast
7:52 PM 60.1 °F - 37.9 °F 44% 29.68 in 10.0 mi SSW 15.0 mph 20.7 mph N/A   Overcast
8:52 PM 57.0 °F - 37.9 °F 49% 29.68 in 10.0 mi SSW 11.5 mph - N/A   Partly Cloudy
9:52 PM 55.9 °F - 41.0 °F 57% 29.70 in 10.0 mi WSW 10.4 mph - 0.00 in   Overcast
10:21 PM 57.2 °F - 42.8 °F 59% 29.72 in 10.0 mi WNW 13.8 mph 24.2 mph N/A   Partly Cloudy
10:52 PM 54.0 °F - 44.1 °F 69% 29.74 in 10.0 mi NW 11.5 mph - N/A   Partly Cloudy
11:52 PM 51.1 °F - 41.0 °F 68% 29.73 in 10.0 mi West 6.9 mph - N/A   Clear